Location: D�derode
(51.8092°N, 10.1065°E)
Time: 21:29:19
(UTC+00:00)

CZ-4 R/B - Pass Details

Date: 01 December 2020
Orbit: 532 x 598 km, 97.7° (Epoch: 24 January)

Event Time Altitude Azimuth Distance (km) Brightness Sun altitude
Exits shadow 16:05:00 - 89° (E) 2,063 3.7 -7.8°
Reaches altitude 10° 16:05:58 10° 77° (ENE) 1,874 3.4 -7.9°
Maximum altitude 16:07:32 12° 54° (NE) 1,751 3.2 -8.2°
Drops below altitude 10° 16:09:08 10° 31° (NNE) 1,894 3.6 -8.4°
Sets 16:12:32 0° 1° (N) 2,816 4.7 -8.9°
